Preview of NWS' New Version of Forecast
This preview is not operational and should not be used for support decisions.

Regional Weather Roundup (RWR)

Issued by National Weather Service (NWS)

                            
000
ASUS43 KLSX 211507
RWRMO 

WEATHER SUMMARY FOR MISSOURI
NATIONAL WEATHER SERVICE SPRINGFIELD MO
1000 AM CDT SUN JUL 21 2019

NOTE: "FAIR" INDICATES FEW OR NO CLOUDS BELOW 12,000 FEET WITH NO
       SIGNIFICANT WEATHER AND/OR OBSTRUCTIONS TO VISIBILITY.
       CURRENT SKY AND/OR WEATHER CONDITIONS ARE NOT AVAILABLE FOR
       CHILLICOTHE AND FARMINGTON.

MOZ001>031-035>038-043-044-053-054-211600-
...NORTHERN AND WESTERN MISSOURI...
  
CITY           SKY/WX    TMP DP  RH WIND       PRES   REMARKS
KANSAS CTY INT PTSUNNY   76  72  87 VRB3      29.97R                  
KANSAS C DTWN  SUNNY     77  71  82 NW7       29.95R                  
LEE'S SUMMIT   SUNNY     74  69  85 N5        29.96R                  
ST JOSEPH      MOSUNNY   74  70  87 E5        29.96R                  
CHILLICOTHE      N/A     75  71  87 NE8       30.01R                  
KIRKSVILLE     MOSUNNY   78  70  76 NE5       30.01F                  
     
$$
MOZ066>068-077>081-088>096-101>105-211600-
...SOUTHWEST MISSOURI...
  
CITY           SKY/WX    TMP DP  RH WIND       PRES   REMARKS
SPRINGFIELD    SUNNY     84  72  67 W7        29.99F                  
JOPLIN         SUNNY     84  73  69 VRB5      29.97F HX  90           
BRANSON        PTSUNNY   84  73  70 CALM      30.02F HX  91           
               
$$
MOZ032>034-039>042-045>050-055>058-069>072-211600-
...CENTRAL MISSOURI...  
  
CITY           SKY/WX    TMP DP  RH WIND       PRES   REMARKS
COLUMBIA       MOSUNNY   77  70  79 N7        30.01R                  
ROLLA          SUNNY     79  68  69 NE9       30.01R                  
SEDALIA        PTSUNNY   73  73 100 NE16G23   30.01F                  
WHITEMAN AFB   DRIZZLE   74  73  96 NE15G22   29.95                   
WARRENSBURG    MOSUNNY   70  70 100 E13       29.97R                  
OSAGE BEACH    SUNNY     80  71  74 VRB7      30.00R                  
               
$$
MOZ051-052-059>065-211600-
...EAST CENTRAL MISSOURI...
  
CITY           SKY/WX    TMP DP  RH WIND       PRES   REMARKS
ST LOUIS INTL  PTSUNNY   86  70  58 NW8G18    29.96R HX  90           
SPIRIT OF STL  MOSUNNY   84  72  67 NW9       29.96R                  
ST CHARLES       N/A    N/A N/A N/A MISG      29.95R                  
                   
$$
MOZ072>076-082>087-097>100-106>115-211600-
...SOUTH CENTRAL AND SOUTHEAST MISSOURI...
  
CITY           SKY/WX    TMP DP  RH WIND       PRES   REMARKS
CAPE GIRARDEAU FAIR      84  76  76 SW6       29.95R HX  93           
FARMINGTON     MOSUNNY   81  76  84 NW6       29.99R                  
POPLAR BLUFF   FAIR      85  80  85 SW8       29.96R HX  99           
WEST PLAINS    SUNNY     83  74  74 W5        30.02S                  
                                       
$$